Time,TemperatureF,DewpointF,PressureIn,WindDirection,WindDirectionDegrees,WindSpeedMPH,WindSpeedGustMPH,Humidity,HourlyPrecipIn,Conditions,Clouds,dailyrainin,SoftwareType,DateUTC
2013-02-09 00:01:00,38.6,34.2,30.27,ESE,102,4.0,12.0,84,0.00,,---,0.00,VWS V13.01,2013-02-09 06:01:00,
2013-02-09 00:06:00,38.5,34.4,30.27,South,186,2.0,6.0,85,0.00,,---,0.00,VWS V13.01,2013-02-09 06:06:00,
2013-02-09 00:11:00,38.5,34.4,30.27,ESE,108,2.0,11.0,85,0.00,,---,0.00,VWS V13.01,2013-02-09 06:11:00,
2013-02-09 00:16:00,38.4,34.3,30.27,ESE,106,3.0,11.0,85,0.00,,---,0.00,VWS V13.01,2013-02-09 06:16:00,
2013-02-09 00:21:00,38.4,34.3,30.28,ESE,110,0.0,11.0,85,0.00,,---,0.00,VWS V13.01,2013-02-09 06:21:00,
2013-02-09 00:26:00,38.4,34.6,30.28,East,98,9.0,14.0,86,0.00,,---,0.00,VWS V13.01,2013-02-09 06:26:00,
2013-02-09 00:31:00,38.3,34.5,30.28,SE,144,4.0,14.0,86,0.00,,---,0.00,VWS V13.01,2013-02-09 06:31:00,
2013-02-09 00:36:00,38.2,34.4,30.29,SE,141,10.0,10.0,86,0.00,,---,0.00,VWS V13.01,2013-02-09 06:36:00,
2013-02-09 00:41:00,38.2,34.4,30.29,SE,138,1.0,10.0,86,0.00,,---,0.00,VWS V13.01,2013-02-09 06:41:00,
2013-02-09 00:46:00,38.1,34.3,30.29,East,99,5.0,11.0,86,0.00,,---,0.00,VWS V13.01,2013-02-09 06:46:00,
2013-02-09 00:51:00,38.1,34.3,30.29,ENE,76,4.0,12.0,86,0.00,,---,0.00,VWS V13.01,2013-02-09 06:51:00,
2013-02-09 00:56:00,38.0,34.2,30.29,SE,142,0.0,12.0,86,0.00,,---,0.00,VWS V13.01,2013-02-09 06:56:00,
2013-02-09 01:02:00,38.0,34.2,30.29,ENE,75,9.0,12.0,86,0.00,,---,0.00,VWS V13.01,2013-02-09 07:02:00,
2013-02-09 01:07:00,37.7,33.6,30.29,SSE,164,5.0,11.0,85,0.00,,---,0.00,VWS V13.01,2013-02-09 07:07:00,
2013-02-09 01:11:00,37.4,33.3,30.29,East,101,3.0,11.0,85,0.00,,---,0.00,VWS V13.01,2013-02-09 07:11:00,
2013-02-09 01:17:00,37.2,32.8,30.29,East,101,12.0,15.0,84,0.00,,---,0.00,VWS V13.01,2013-02-09 07:17:00,
2013-02-09 01:22:00,37.0,32.6,30.29,SE,136,10.0,15.0,84,0.00,,---,0.00,VWS V13.01,2013-02-09 07:22:00,
2013-02-09 01:27:00,36.8,32.4,30.29,ESE,118,9.0,15.0,84,0.00,,---,0.00,VWS V13.01,2013-02-09 07:27:00,
2013-02-09 01:32:00,36.7,32.3,30.28,SE,133,3.0,15.0,84,0.00,,---,0.00,VWS V13.01,2013-02-09 07:32:00,
2013-02-09 01:37:00,36.7,32.3,30.28,ENE,75,10.0,10.0,84,0.00,,---,0.00,VWS V13.01,2013-02-09 07:37:00,
2013-02-09 01:42:00,36.6,32.2,30.29,East,98,4.0,13.0,84,0.00,,---,0.00,VWS V13.01,2013-02-09 07:42:00,
2013-02-09 01:47:00,36.6,32.2,30.29,SE,133,0.0,13.0,84,0.00,,---,0.00,VWS V13.01,2013-02-09 07:47:00,
2013-02-09 01:52:00,36.6,32.5,30.29,SE,140,6.0,13.0,85,0.00,,---,0.00,VWS V13.01,2013-02-09 07:52:00,
2013-02-09 01:57:00,36.5,32.4,30.28,SE,129,0.0,13.0,85,0.00,,---,0.00,VWS V13.01,2013-02-09 07:57:00,
2013-02-09 02:02:00,36.5,32.4,30.29,ESE,105,4.0,13.0,85,0.00,,---,0.00,VWS V13.01,2013-02-09 08:02:00,
2013-02-09 02:07:00,36.4,32.3,30.29,East,101,3.0,13.0,85,0.00,,---,0.00,VWS V13.01,2013-02-09 08:07:00,
2013-02-09 02:13:00,36.3,32.2,30.29,ENE,75,0.0,13.0,85,0.00,,---,0.00,VWS V13.01,2013-02-09 08:13:00,
2013-02-09 02:18:00,36.3,32.2,30.29,ESE,115,1.0,13.0,85,0.00,,---,0.00,VWS V13.01,2013-02-09 08:18:00,
2013-02-09 02:23:00,36.1,32.0,30.30,ENE,76,3.0,13.0,85,0.00,,---,0.00,VWS V13.01,2013-02-09 08:23:00,
2013-02-09 02:27:00,36.0,31.9,30.30,SE,144,4.0,13.0,85,0.00,,---,0.00,VWS V13.01,2013-02-09 08:27:00,
2013-02-09 02:33:00,35.9,31.8,30.30,ESE,115,5.0,13.0,85,0.00,,---,0.00,VWS V13.01,2013-02-09 08:33:00,
2013-02-09 02:38:00,35.8,32.0,30.30,South,174,9.0,9.0,86,0.00,,---,0.00,VWS V13.01,2013-02-09 08:38:00,
2013-02-09 02:43:00,35.7,31.9,30.30,ESE,107,0.0,11.0,86,0.00,,---,0.00,VWS V13.01,2013-02-09 08:43:00,
2013-02-09 02:48:00,35.7,31.9,30.30,SE,142,9.0,11.0,86,0.00,,---,0.00,VWS V13.01,2013-02-09 08:48:00,
2013-02-09 02:53:00,35.6,31.8,30.30,ESE,121,4.0,11.0,86,0.00,,---,0.00,VWS V13.01,2013-02-09 08:53:00,
2013-02-09 02:58:00,35.6,31.8,30.30,ESE,121,3.0,11.0,86,0.00,,---,0.00,VWS V13.01,2013-02-09 08:58:00,
2013-02-09 03:03:00,35.6,31.8,30.30,South,173,5.0,13.0,86,0.00,,---,0.00,VWS V13.01,2013-02-09 09:03:00,
2013-02-09 03:08:00,35.5,31.7,30.30,SE,140,6.0,9.0,86,0.00,,---,0.00,VWS V13.01,2013-02-09 09:08:00,
2013-02-09 03:13:00,35.5,31.7,30.30,East,101,3.0,12.0,86,0.00,,---,0.00,VWS V13.01,2013-02-09 09:13:00,
2013-02-09 03:18:00,35.4,31.6,30.29,East,85,7.0,15.0,86,0.00,,---,0.00,VWS V13.01,2013-02-09 09:18:00,
2013-02-09 03:23:00,35.4,31.6,30.28,East,99,5.0,15.0,86,0.00,,---,0.00,VWS V13.01,2013-02-09 09:23:00,
2013-02-09 03:28:00,35.3,31.5,30.28,SSE,150,9.0,15.0,86,0.00,,---,0.00,VWS V13.01,2013-02-09 09:28:00,
2013-02-09 03:33:00,35.3,31.5,30.28,East,97,2.0,15.0,86,0.00,,---,0.00,VWS V13.01,2013-02-09 09:33:00,
2013-02-09 03:38:00,35.2,31.4,30.27,ENE,69,5.0,16.0,86,0.00,,---,0.00,VWS V13.01,2013-02-09 09:38:00,
2013-02-09 03:43:00,35.2,31.4,30.27,SE,131,3.0,16.0,86,0.00,,---,0.00,VWS V13.01,2013-02-09 09:43:00,
2013-02-09 03:48:00,35.2,31.4,30.26,NE,41,10.0,16.0,86,0.00,,---,0.00,VWS V13.01,2013-02-09 09:48:00,
2013-02-09 03:53:00,35.2,31.4,30.27,East,91,6.0,16.0,86,0.00,,---,0.00,VWS V13.01,2013-02-09 09:53:00,
2013-02-09 03:58:00,35.2,31.1,30.28,SSE,155,2.0,16.0,85,0.00,,---,0.00,VWS V13.01,2013-02-09 09:58:00,
2013-02-09 04:03:00,35.2,31.1,30.29,SE,145,0.0,16.0,85,0.00,,---,0.00,VWS V13.01,2013-02-09 10:03:00,
2013-02-09 04:08:00,35.3,31.2,30.29,SE,131,6.0,9.0,85,0.00,,---,0.00,VWS V13.01,2013-02-09 10:08:00,
2013-02-09 04:14:00,35.3,31.2,30.28,ESE,109,1.0,10.0,85,0.00,,---,0.00,VWS V13.01,2013-02-09 10:14:00,
2013-02-09 04:19:00,35.3,31.2,30.28,ENE,73,5.0,12.0,85,0.00,,---,0.00,VWS V13.01,2013-02-09 10:19:00,
2013-02-09 04:24:00,35.4,31.4,30.29,SE,125,3.0,12.0,85,0.00,,---,0.00,VWS V13.01,2013-02-09 10:24:00,
2013-02-09 04:29:00,35.5,31.5,30.28,SE,128,2.0,15.0,85,0.00,,---,0.00,VWS V13.01,2013-02-09 10:29:00,
2013-02-09 04:34:00,35.5,31.5,30.28,South,173,3.0,15.0,85,0.00,,---,0.00,VWS V13.01,2013-02-09 10:34:00,
2013-02-09 04:39:00,35.5,31.5,30.28,East,93,0.0,13.0,85,0.00,,---,0.00,VWS V13.01,2013-02-09 10:39:00,
2013-02-09 04:44:00,35.5,31.5,30.28,SSE,160,1.0,14.0,85,0.00,,---,0.00,VWS V13.01,2013-02-09 10:44:00,
2013-02-09 04:49:00,35.5,31.5,30.27,SE,133,3.0,14.0,85,0.00,,---,0.00,VWS V13.01,2013-02-09 10:49:00,
2013-02-09 04:54:00,35.5,31.5,30.27,East,96,4.0,16.0,85,0.00,,---,0.00,VWS V13.01,2013-02-09 10:54:00,
2013-02-09 04:59:00,35.5,31.5,30.28,SSE,168,3.0,16.0,85,0.00,,---,0.00,VWS V13.01,2013-02-09 10:59:00,
2013-02-09 05:04:00,35.4,31.4,30.27,ESE,121,3.0,16.0,85,0.00,,---,0.00,VWS V13.01,2013-02-09 11:04:00,
2013-02-09 05:09:00,35.4,31.4,30.28,ESE,123,6.0,7.0,85,0.00,,---,0.00,VWS V13.01,2013-02-09 11:09:00,
2013-02-09 05:14:00,35.3,31.2,30.28,SSE,151,9.0,9.0,85,0.00,,---,0.00,VWS V13.01,2013-02-09 11:14:00,
2013-02-09 05:19:00,35.3,31.2,30.28,SSE,161,4.0,11.0,85,0.00,,---,0.00,VWS V13.01,2013-02-09 11:19:00,
2013-02-09 05:24:00,35.2,31.1,30.28,ESE,103,3.0,12.0,85,0.00,,---,0.00,VWS V13.01,2013-02-09 11:24:00,
2013-02-09 05:29:00,35.2,31.1,30.28,East,84,2.0,12.0,85,0.00,,---,0.00,VWS V13.01,2013-02-09 11:29:00,
2013-02-09 05:34:00,35.2,31.1,30.29,East,92,6.0,12.0,85,0.00,,---,0.00,VWS V13.01,2013-02-09 11:34:00,
2013-02-09 05:39:00,35.2,31.1,30.29,SE,142,4.0,7.0,85,0.00,,---,0.00,VWS V13.01,2013-02-09 11:39:00,
2013-02-09 05:44:00,35.2,31.1,30.29,SSE,166,0.0,7.0,85,0.00,,---,0.00,VWS V13.01,2013-02-09 11:44:00,
2013-02-09 05:49:00,35.2,31.1,30.29,SSE,163,2.0,7.0,85,0.00,,---,0.00,VWS V13.01,2013-02-09 11:49:00,
2013-02-09 05:54:00,35.2,31.1,30.29,South,171,3.0,7.0,85,0.00,,---,0.00,VWS V13.01,2013-02-09 11:54:00,
2013-02-09 05:59:00,35.2,31.1,30.28,SE,133,0.0,7.0,85,0.00,,---,0.00,VWS V13.01,2013-02-09 11:59:00,
2013-02-09 06:04:00,35.1,31.0,30.27,ESE,112,6.0,7.0,85,0.00,,---,0.00,VWS V13.01,2013-02-09 12:04:00,
2013-02-09 06:09:00,35.1,31.3,30.28,ESE,119,1.0,5.0,86,0.00,,---,0.00,VWS V13.01,2013-02-09 12:09:00,
2013-02-09 06:15:00,35.1,31.3,30.28,East,88,0.0,5.0,86,0.00,,---,0.00,VWS V13.01,2013-02-09 12:15:00,
2013-02-09 06:20:00,35.1,31.3,30.28,ESE,119,5.0,6.0,86,0.00,,---,0.00,VWS V13.01,2013-02-09 12:20:00,
2013-02-09 06:25:00,35.0,31.2,30.29,ESE,113,0.0,7.0,86,0.00,,---,0.00,VWS V13.01,2013-02-09 12:25:00,
2013-02-09 06:30:00,35.0,31.2,30.29,SE,143,1.0,7.0,86,0.00,,---,0.00,VWS V13.01,2013-02-09 12:30:00,
2013-02-09 06:35:00,34.9,31.1,30.30,SSE,157,0.0,7.0,86,0.00,,---,0.00,VWS V13.01,2013-02-09 12:35:00,
2013-02-09 06:40:00,35.0,31.2,30.29,ENE,67,0.0,4.0,86,0.00,,---,0.00,VWS V13.01,2013-02-09 12:40:00,
2013-02-09 06:45:00,34.9,31.1,30.30,ESE,119,0.0,4.0,86,0.00,,---,0.00,VWS V13.01,2013-02-09 12:45:00,
2013-02-09 06:50:00,35.0,31.2,30.29,SE,146,0.0,5.0,86,0.00,,---,0.00,VWS V13.01,2013-02-09 12:50:00,
2013-02-09 06:55:00,34.9,31.1,30.30,East,98,3.0,5.0,86,0.00,,---,0.00,VWS V13.01,2013-02-09 12:55:00,
2013-02-09 07:00:00,34.9,31.1,30.30,ESE,107,2.0,5.0,86,0.00,,---,0.00,VWS V13.01,2013-02-09 13:00:00,
2013-02-09 07:05:00,34.9,31.1,30.30,ESE,102,3.0,9.0,86,0.00,,---,0.00,VWS V13.01,2013-02-09 13:05:00,
2013-02-09 07:10:00,34.8,31.0,30.30,ESE,110,3.0,6.0,86,0.00,,---,0.00,VWS V13.01,2013-02-09 13:10:00,
2013-02-09 07:15:00,34.8,31.0,30.30,East,89,2.0,6.0,86,0.00,,---,0.00,VWS V13.01,2013-02-09 13:15:00,
2013-02-09 07:20:00,34.8,31.0,30.30,ESE,106,0.0,6.0,86,0.00,,---,0.00,VWS V13.01,2013-02-09 13:20:00,
2013-02-09 07:25:00,34.7,31.0,30.31,ESE,107,2.0,6.0,86,0.00,,---,0.00,VWS V13.01,2013-02-09 13:25:00,
2013-02-09 07:30:00,34.7,31.0,30.31,ESE,108,2.0,6.0,86,0.00,,---,0.00,VWS V13.01,2013-02-09 13:30:00,
2013-02-09 07:35:00,34.8,31.0,30.31,ESE,109,4.0,5.0,86,0.00,,---,0.00,VWS V13.01,2013-02-09 13:35:00,
2013-02-09 07:41:00,34.8,31.0,30.31,ESE,109,2.0,5.0,86,0.00,,---,0.00,VWS V13.01,2013-02-09 13:41:00,
2013-02-09 07:46:00,34.8,31.0,30.31,WSW,251,0.0,6.0,86,0.00,,---,0.00,VWS V13.01,2013-02-09 13:46:00,
2013-02-09 07:51:00,34.8,31.0,30.31,ESE,118,0.0,12.0,86,0.00,,---,0.00,VWS V13.01,2013-02-09 13:51:00,
2013-02-09 07:56:00,34.9,31.1,30.31,East,91,0.0,12.0,86,0.00,,---,0.00,VWS V13.01,2013-02-09 13:56:00,
2013-02-09 08:01:00,34.9,31.1,30.31,SE,141,3.0,12.0,86,0.00,,---,0.00,VWS V13.01,2013-02-09 14:01:00,
2013-02-09 08:06:00,34.9,31.1,30.31,SE,126,1.0,2.0,86,0.00,,---,0.00,VWS V13.01,2013-02-09 14:06:00,
2013-02-09 08:11:00,35.0,31.2,30.30,East,86,3.0,5.0,86,0.00,,---,0.00,VWS V13.01,2013-02-09 14:11:00,
2013-02-09 08:16:00,35.0,31.2,30.30,ESE,118,9.0,10.0,86,0.00,,---,0.00,VWS V13.01,2013-02-09 14:16:00,
2013-02-09 08:21:00,34.9,30.9,30.30,SSE,156,2.0,10.0,85,0.00,,---,0.00,VWS V13.01,2013-02-09 14:21:00,
2013-02-09 08:26:00,34.9,30.9,30.30,ESE,105,5.0,10.0,85,0.00,,---,0.00,VWS V13.01,2013-02-09 14:26:00,
2013-02-09 08:31:00,34.9,30.9,30.30,ESE,113,6.0,12.0,85,0.00,,---,0.00,VWS V13.01,2013-02-09 14:31:00,
2013-02-09 08:36:00,34.9,30.9,30.31,SE,146,3.0,5.0,85,0.00,,---,0.00,VWS V13.01,2013-02-09 14:36:00,
2013-02-09 08:41:00,34.9,30.9,30.31,SSE,148,6.0,10.0,85,0.00,,---,0.00,VWS V13.01,2013-02-09 14:41:00,
2013-02-09 08:46:00,34.9,30.9,30.31,ENE,59,0.0,10.0,85,0.00,,---,0.00,VWS V13.01,2013-02-09 14:46:00,
2013-02-09 08:51:00,34.9,30.9,30.31,East,85,2.0,10.0,85,0.00,,---,0.00,VWS V13.01,2013-02-09 14:51:00,
2013-02-09 08:56:00,35.0,31.0,30.31,East,93,3.0,10.0,85,0.00,,---,0.00,VWS V13.01,2013-02-09 14:56:00,
2013-02-09 09:01:00,35.1,31.0,30.31,SE,139,3.0,10.0,85,0.00,,---,0.00,VWS V13.01,2013-02-09 15:01:00,
2013-02-09 09:07:00,35.1,31.0,30.31,ESE,117,10.0,10.0,85,0.00,,---,0.00,VWS V13.01,2013-02-09 15:07:00,
2013-02-09 09:12:00,35.1,31.0,30.31,SSE,168,5.0,12.0,85,0.00,,---,0.00,VWS V13.01,2013-02-09 15:12:00,
2013-02-09 09:17:00,35.2,31.1,30.30,ESE,119,2.0,13.0,85,0.00,,---,0.00,VWS V13.01,2013-02-09 15:17:00,
2013-02-09 09:22:00,35.3,31.2,30.31,NE,37,7.0,13.0,85,0.00,,---,0.00,VWS V13.01,2013-02-09 15:22:00,
2013-02-09 09:27:00,35.5,31.7,30.30,East,95,6.0,13.0,86,0.00,,---,0.00,VWS V13.01,2013-02-09 15:27:00,
2013-02-09 09:32:00,35.6,31.5,30.29,SSE,154,4.0,14.0,85,0.00,,---,0.00,VWS V13.01,2013-02-09 15:32:00,
2013-02-09 09:37:00,35.7,31.6,30.30,SSE,163,7.0,12.0,85,0.00,,---,0.00,VWS V13.01,2013-02-09 15:37:00,
2013-02-09 09:42:00,35.9,31.8,30.29,SE,129,13.0,15.0,85,0.00,,---,0.00,VWS V13.01,2013-02-09 15:42:00,
2013-02-09 09:47:00,36.0,31.6,30.29,SE,145,0.0,15.0,84,0.00,,---,0.00,VWS V13.01,2013-02-09 15:47:00,
2013-02-09 09:52:00,36.4,32.3,30.29,SE,146,4.0,15.0,85,0.00,,---,0.00,VWS V13.01,2013-02-09 15:52:00,
2013-02-09 09:57:00,36.5,32.1,30.28,ESE,108,9.0,15.0,84,0.00,,---,0.00,VWS V13.01,2013-02-09 15:57:00,
2013-02-09 10:02:00,36.5,33.6,30.28,ESE,113,6.0,15.0,89,0.00,,---,0.00,VWS V13.01,2013-02-09 16:02:00,
2013-02-09 10:07:00,36.8,32.4,30.28,South,178,4.0,10.0,84,0.00,,---,0.00,VWS V13.01,2013-02-09 16:07:00,
2013-02-09 10:12:00,37.0,32.3,30.28,East,84,3.0,15.0,83,0.00,,---,0.00,VWS V13.01,2013-02-09 16:12:00,
2013-02-09 10:17:00,37.5,32.8,30.28,SSE,152,2.0,15.0,83,0.00,,---,0.00,VWS V13.01,2013-02-09 16:17:00,
2013-02-09 10:22:00,37.7,33.0,30.28,East,95,4.0,15.0,83,0.00,,---,0.00,VWS V13.01,2013-02-09 16:22:00,
2013-02-09 10:27:00,38.2,33.5,30.28,ENE,72,3.0,15.0,83,0.00,,---,0.00,VWS V13.01,2013-02-09 16:27:00,
2013-02-09 10:32:00,38.4,33.1,30.28,SE,142,6.0,15.0,81,0.00,,---,0.00,VWS V13.01,2013-02-09 16:32:00,
2013-02-09 10:37:00,38.4,33.1,30.27,SE,128,6.0,11.0,81,0.00,,---,0.00,VWS V13.01,2013-02-09 16:37:00,
2013-02-09 10:42:00,38.2,32.9,30.27,SSE,152,2.0,13.0,81,0.00,,---,0.00,VWS V13.01,2013-02-09 16:42:00,
2013-02-09 10:47:00,38.1,32.8,30.27,SE,141,2.0,13.0,81,0.00,,---,0.00,VWS V13.01,2013-02-09 16:47:00,
2013-02-09 10:52:00,38.8,33.8,30.27,SSE,153,5.0,13.0,82,0.00,,---,0.00,VWS V13.01,2013-02-09 16:52:00,
2013-02-09 10:58:00,38.6,33.0,30.27,East,98,4.0,13.0,80,0.00,,---,0.00,VWS V13.01,2013-02-09 16:58:00,
2013-02-09 11:03:00,38.5,33.2,30.27,ESE,110,0.0,13.0,81,0.00,,---,0.00,VWS V13.01,2013-02-09 17:03:00,
2013-02-09 11:08:00,38.5,33.2,30.28,SSE,150,5.0,11.0,81,0.00,,---,0.00,VWS V13.01,2013-02-09 17:08:00,
2013-02-09 11:13:00,38.4,33.1,30.28,ESE,119,4.0,11.0,81,0.00,,---,0.00,VWS V13.01,2013-02-09 17:13:00,
2013-02-09 11:18:00,38.5,33.2,30.27,SSE,156,0.0,11.0,81,0.00,,---,0.00,VWS V13.01,2013-02-09 17:18:00,
2013-02-09 11:23:00,38.8,33.5,30.26,SE,132,2.0,11.0,81,0.00,,---,0.00,VWS V13.01,2013-02-09 17:23:00,
2013-02-09 11:28:00,38.7,33.1,30.26,ESE,105,1.0,11.0,80,0.00,,---,0.00,VWS V13.01,2013-02-09 17:28:00,
2013-02-09 11:33:00,38.6,33.3,30.25,SE,135,4.0,11.0,81,0.00,,---,0.00,VWS V13.01,2013-02-09 17:33:00,
2013-02-09 11:38:00,38.6,33.3,30.24,SSW,198,9.0,16.0,81,0.00,,---,0.00,VWS V13.01,2013-02-09 17:38:00,
2013-02-09 11:43:00,38.5,33.2,30.24,East,94,13.0,16.0,81,0.00,,---,0.00,VWS V13.01,2013-02-09 17:43:00,
2013-02-09 11:48:00,38.6,33.3,30.24,ESE,122,5.0,16.0,81,0.00,,---,0.00,VWS V13.01,2013-02-09 17:48:00,
2013-02-09 11:53:00,38.8,33.5,30.24,East,84,11.0,16.0,81,0.00,,---,0.00,VWS V13.01,2013-02-09 17:53:00,
2013-02-09 11:58:00,38.6,33.3,30.23,SSE,167,5.0,16.0,81,0.00,,---,0.00,VWS V13.01,2013-02-09 17:58:00,
2013-02-09 12:03:00,38.4,33.1,30.23,NE,55,2.0,16.0,81,0.00,,---,0.00,VWS V13.01,2013-02-09 18:03:00,
2013-02-09 12:08:00,38.3,33.3,30.23,East,88,3.0,7.0,82,0.00,,---,0.00,VWS V13.01,2013-02-09 18:08:00,
2013-02-09 12:13:00,38.3,33.3,30.22,East,83,5.0,11.0,82,0.00,,---,0.00,VWS V13.01,2013-02-09 18:13:00,
2013-02-09 12:18:00,38.7,34.0,30.22,SE,134,0.0,11.0,83,0.00,,---,0.00,VWS V13.01,2013-02-09 18:18:00,
2013-02-09 12:23:00,39.2,34.2,30.21,SSE,155,5.0,15.0,82,0.00,,---,0.00,VWS V13.01,2013-02-09 18:23:00,
2013-02-09 12:28:00,39.2,33.9,30.21,SE,146,6.0,15.0,81,0.00,,---,0.00,VWS V13.01,2013-02-09 18:28:00,
2013-02-09 12:33:00,39.0,33.7,30.20,SSE,161,3.0,15.0,81,0.00,,---,0.00,VWS V13.01,2013-02-09 18:33:00,
2013-02-09 12:38:00,39.1,33.8,30.20,ENE,73,1.0,11.0,81,0.00,,---,0.00,VWS V13.01,2013-02-09 18:38:00,
2013-02-09 12:43:00,39.3,34.0,30.20,ESE,103,10.0,11.0,81,0.00,,---,0.00,VWS V13.01,2013-02-09 18:43:00,
2013-02-09 12:48:00,39.4,34.1,30.19,ESE,122,0.0,11.0,81,0.00,,---,0.00,VWS V13.01,2013-02-09 18:48:00,
2013-02-09 12:53:00,39.9,34.5,30.19,SE,145,1.0,11.0,81,0.00,,---,0.00,VWS V13.01,2013-02-09 18:53:00,
2013-02-09 12:58:00,40.0,34.3,30.18,SE,135,2.0,11.0,80,0.00,,---,0.00,VWS V13.01,2013-02-09 18:58:00,
2013-02-09 13:03:00,40.2,34.5,30.18,South,184,6.0,11.0,80,0.00,,---,0.00,VWS V13.01,2013-02-09 19:03:00,
2013-02-09 13:08:00,40.3,34.3,30.17,ESE,103,2.0,12.0,79,0.00,,---,0.00,VWS V13.01,2013-02-09 19:08:00,
2013-02-09 13:14:00,40.4,34.4,30.17,ESE,116,5.0,12.0,79,0.00,,---,0.00,VWS V13.01,2013-02-09 19:14:00,
2013-02-09 13:19:00,40.7,34.7,30.17,SSE,161,5.0,12.0,79,0.00,,---,0.00,VWS V13.01,2013-02-09 19:19:00,
2013-02-09 13:24:00,40.9,35.2,30.17,South,174,6.0,13.0,80,0.00,,---,0.00,VWS V13.01,2013-02-09 19:24:00,
2013-02-09 13:29:00,41.1,34.8,30.17,SSE,151,5.0,13.0,78,0.00,,---,0.00,VWS V13.01,2013-02-09 19:29:00,
2013-02-09 13:34:00,40.8,34.5,30.16,SSE,149,4.0,13.0,78,0.00,,---,0.00,VWS V13.01,2013-02-09 19:34:00,
2013-02-09 13:39:00,40.7,34.4,30.16,East,87,9.0,14.0,78,0.00,,---,0.00,VWS V13.01,2013-02-09 19:39:00,
2013-02-09 13:44:00,40.7,34.4,30.16,ESE,122,3.0,14.0,78,0.00,,---,0.00,VWS V13.01,2013-02-09 19:44:00,
2013-02-09 13:49:00,41.1,34.8,30.15,SE,141,6.0,14.0,78,0.00,,---,0.00,VWS V13.01,2013-02-09 19:49:00,
2013-02-09 13:54:00,41.3,35.0,30.15,ESE,123,5.0,14.0,78,0.00,,---,0.00,VWS V13.01,2013-02-09 19:54:00,
2013-02-09 13:59:00,41.3,35.0,30.15,East,86,4.0,14.0,78,0.00,,---,0.00,VWS V13.01,2013-02-09 19:59:00,
2013-02-09 14:04:00,41.4,35.1,30.15,SE,144,7.0,14.0,78,0.00,,---,0.00,VWS V13.01,2013-02-09 20:04:00,
2013-02-09 14:09:00,41.4,34.7,30.15,SSW,209,5.0,10.0,77,0.00,,---,0.00,VWS V13.01,2013-02-09 20:09:00,
2013-02-09 14:14:00,41.4,34.7,30.14,SSE,153,4.0,11.0,77,0.00,,---,0.00,VWS V13.01,2013-02-09 20:14:00,
2013-02-09 14:19:00,41.5,34.8,30.13,SE,134,3.0,12.0,77,0.00,,---,0.00,VWS V13.01,2013-02-09 20:19:00,
2013-02-09 14:24:00,41.5,34.8,30.13,SE,137,7.0,12.0,77,0.00,,---,0.00,VWS V13.01,2013-02-09 20:24:00,
2013-02-09 14:29:00,41.5,34.8,30.13,ESE,102,2.0,12.0,77,0.00,,---,0.00,VWS V13.01,2013-02-09 20:29:00,
2013-02-09 14:34:00,41.8,35.1,30.12,ESE,113,7.0,12.0,77,0.00,,---,0.00,VWS V13.01,2013-02-09 20:34:00,
2013-02-09 14:40:00,41.9,35.2,30.12,ESE,110,3.0,11.0,77,0.00,,---,0.00,VWS V13.01,2013-02-09 20:40:00,
2013-02-09 14:45:00,41.9,35.2,30.11,East,82,2.0,11.0,77,0.00,,---,0.00,VWS V13.01,2013-02-09 20:45:00,
2013-02-09 14:50:00,42.0,35.7,30.11,East,86,1.0,11.0,78,0.00,,---,0.00,VWS V13.01,2013-02-09 20:50:00,
2013-02-09 14:55:00,42.1,35.8,30.11,ESE,119,4.0,11.0,78,0.00,,---,0.00,VWS V13.01,2013-02-09 20:55:00,
2013-02-09 15:00:00,41.9,35.9,30.11,East,94,3.0,11.0,79,0.00,,---,0.00,VWS V13.01,2013-02-09 21:00:00,
2013-02-09 15:05:00,41.9,35.9,30.11,ESE,111,4.0,11.0,79,0.00,,---,0.00,VWS V13.01,2013-02-09 21:05:00,
2013-02-09 15:10:00,41.9,35.9,30.10,ESE,105,1.0,10.0,79,0.00,,---,0.00,VWS V13.01,2013-02-09 21:10:00,
2013-02-09 15:15:00,41.9,36.2,30.10,ESE,104,6.0,10.0,80,0.00,,---,0.00,VWS V13.01,2013-02-09 21:15:00,
2013-02-09 15:20:00,41.8,36.1,30.10,SSE,159,3.0,11.0,80,0.00,,---,0.00,VWS V13.01,2013-02-09 21:20:00,
2013-02-09 15:25:00,41.9,36.2,30.09,ESE,121,1.0,11.0,80,0.00,,---,0.00,VWS V13.01,2013-02-09 21:25:00,
2013-02-09 15:30:00,41.8,35.8,30.09,SE,129,5.0,11.0,79,0.00,,---,0.00,VWS V13.01,2013-02-09 21:30:00,
2013-02-09 15:35:00,41.8,35.8,30.10,SSE,149,0.0,11.0,79,0.00,,---,0.00,VWS V13.01,2013-02-09 21:35:00,
2013-02-09 15:40:00,41.9,36.2,30.10,ESE,122,9.0,12.0,80,0.00,,---,0.00,VWS V13.01,2013-02-09 21:40:00,
2013-02-09 15:45:00,41.8,36.1,30.09,SE,142,4.0,14.0,80,0.00,,---,0.00,VWS V13.01,2013-02-09 21:45:00,
2013-02-09 15:50:00,41.8,36.4,30.10,SSE,159,4.0,14.0,81,0.00,,---,0.00,VWS V13.01,2013-02-09 21:50:00,
2013-02-09 15:55:00,41.8,36.4,30.10,ESE,107,5.0,14.0,81,0.00,,---,0.00,VWS V13.01,2013-02-09 21:55:00,
2013-02-09 16:00:00,41.6,36.5,30.10,SE,135,1.0,14.0,82,0.00,,---,0.00,VWS V13.01,2013-02-09 22:00:00,
2013-02-09 16:05:00,41.5,36.7,30.10,ESE,111,3.0,14.0,83,0.00,,---,0.00,VWS V13.01,2013-02-09 22:05:00,
2013-02-09 16:10:00,41.5,36.7,30.10,South,180,5.0,6.0,83,0.00,,---,0.00,VWS V13.01,2013-02-09 22:10:00,
2013-02-09 16:15:00,41.4,36.9,30.09,SE,130,3.0,11.0,84,0.00,,---,0.00,VWS V13.01,2013-02-09 22:15:00,
2013-02-09 16:20:00,41.4,36.9,30.09,ESE,123,2.0,12.0,84,0.00,,---,0.00,VWS V13.01,2013-02-09 22:20:00,
2013-02-09 16:25:00,41.3,36.8,30.10,SSE,163,0.0,12.0,84,0.00,,---,0.00,VWS V13.01,2013-02-09 22:25:00,
2013-02-09 16:30:00,41.3,37.1,30.09,ESE,118,7.0,12.0,85,0.00,,---,0.00,VWS V13.01,2013-02-09 22:30:00,
2013-02-09 16:35:00,41.2,37.0,30.09,ESE,103,4.0,12.0,85,0.00,,---,0.00,VWS V13.01,2013-02-09 22:35:00,
2013-02-09 16:40:00,41.2,37.0,30.08,ESE,115,8.0,9.0,85,0.00,,---,0.00,VWS V13.01,2013-02-09 22:40:00,
2013-02-09 16:45:00,41.2,37.0,30.08,ESE,120,0.0,9.0,85,0.00,,---,0.00,VWS V13.01,2013-02-09 22:45:00,
2013-02-09 16:50:00,41.2,37.0,30.09,ESE,117,1.0,12.0,85,0.00,,---,0.00,VWS V13.01,2013-02-09 22:50:00,
2013-02-09 16:55:00,41.2,37.0,30.09,ESE,111,2.0,12.0,85,0.00,,---,0.00,VWS V13.01,2013-02-09 22:55:00,
2013-02-09 17:00:00,41.2,37.0,30.08,NE,51,4.0,12.0,85,0.00,,---,0.00,VWS V13.01,2013-02-09 23:00:00,
2013-02-09 17:05:00,41.2,37.0,30.07,SE,146,3.0,12.0,85,0.00,,---,0.00,VWS V13.01,2013-02-09 23:05:00,
2013-02-09 17:10:00,41.2,37.0,30.08,South,172,5.0,9.0,85,0.00,,---,0.00,VWS V13.01,2013-02-09 23:10:00,
2013-02-09 17:15:00,41.2,37.3,30.08,SE,132,2.0,9.0,86,0.00,,---,0.00,VWS V13.01,2013-02-09 23:15:00,
2013-02-09 17:20:00,41.2,37.3,30.08,SSW,194,3.0,9.0,86,0.00,,---,0.00,VWS V13.01,2013-02-09 23:20:00,
2013-02-09 17:26:00,41.2,37.3,30.08,SE,145,3.0,9.0,86,0.00,,---,0.00,VWS V13.01,2013-02-09 23:26:00,
2013-02-09 17:31:00,41.2,37.3,30.08,ESE,102,4.0,9.0,86,0.00,,---,0.00,VWS V13.01,2013-02-09 23:31:00,
2013-02-09 17:36:00,41.2,37.3,30.07,ESE,105,3.0,4.0,86,0.00,,---,0.00,VWS V13.01,2013-02-09 23:36:00,
2013-02-09 17:41:00,41.2,37.3,30.08,South,177,5.0,5.0,86,0.00,,---,0.00,VWS V13.01,2013-02-09 23:41:00,
2013-02-09 17:46:00,41.2,37.3,30.07,SE,143,7.0,7.0,86,0.00,,---,0.00,VWS V13.01,2013-02-09 23:46:00,
2013-02-09 17:51:00,41.1,36.9,30.06,ESE,117,3.0,12.0,85,0.00,,---,0.00,VWS V13.01,2013-02-09 23:51:00,
2013-02-09 17:56:00,41.1,36.9,30.06,ENE,68,3.0,12.0,85,0.00,,---,0.00,VWS V13.01,2013-02-09 23:56:00,
2013-02-09 18:01:00,41.1,36.9,30.06,East,84,3.0,12.0,85,0.00,,---,0.00,VWS V13.01,2013-02-10 00:01:00,
2013-02-09 18:06:00,41.1,36.9,30.06,East,92,2.0,6.0,85,0.00,,---,0.00,VWS V13.01,2013-02-10 00:06:00,
2013-02-09 18:11:00,41.1,36.9,30.05,East,82,10.0,10.0,85,0.00,,---,0.00,VWS V13.01,2013-02-10 00:11:00,
2013-02-09 18:16:00,41.1,36.9,30.06,SSE,160,1.0,12.0,85,0.00,,---,0.00,VWS V13.01,2013-02-10 00:16:00,
2013-02-09 18:21:00,41.1,36.9,30.06,East,95,3.0,12.0,85,0.00,,---,0.00,VWS V13.01,2013-02-10 00:21:00,
2013-02-09 18:26:00,41.1,36.9,30.06,South,169,1.0,12.0,85,0.00,,---,0.00,VWS V13.01,2013-02-10 00:26:00,
2013-02-09 18:31:00,41.1,36.9,30.07,WSW,240,0.0,12.0,85,0.00,,---,0.00,VWS V13.01,2013-02-10 00:31:00,
2013-02-09 18:36:00,41.2,37.0,30.06,ESE,113,3.0,3.0,85,0.00,,---,0.00,VWS V13.01,2013-02-10 00:36:00,
2013-02-09 18:42:00,41.2,37.0,30.06,ESE,113,10.0,11.0,85,0.00,,---,0.00,VWS V13.01,2013-02-10 00:42:00,
2013-02-09 18:47:00,41.2,37.0,30.06,East,84,6.0,11.0,85,0.00,,---,0.00,VWS V13.01,2013-02-10 00:47:00,
2013-02-09 18:52:00,41.2,37.0,30.05,SSE,154,4.0,11.0,85,0.00,,---,0.00,VWS V13.01,2013-02-10 00:52:00,
2013-02-09 18:57:00,41.2,37.0,30.05,SE,136,5.0,11.0,85,0.00,,---,0.00,VWS V13.01,2013-02-10 00:57:00,
2013-02-09 19:02:00,41.1,36.9,30.06,East,101,2.0,15.0,85,0.00,,---,0.00,VWS V13.01,2013-02-10 01:02:00,
2013-02-09 19:07:00,41.1,36.9,30.06,SSE,162,5.0,7.0,85,0.00,,---,0.00,VWS V13.01,2013-02-10 01:07:00,
2013-02-09 19:12:00,41.1,36.9,30.06,SSE,157,7.0,10.0,85,0.00,,---,0.00,VWS V13.01,2013-02-10 01:12:00,
2013-02-09 19:17:00,41.1,36.9,30.05,SE,142,4.0,11.0,85,0.00,,---,0.00,VWS V13.01,2013-02-10 01:17:00,
2013-02-09 19:22:00,41.1,37.2,30.05,ESE,109,7.0,13.0,86,0.00,,---,0.00,VWS V13.01,2013-02-10 01:22:00,
2013-02-09 19:27:00,41.1,37.2,30.05,SE,143,4.0,13.0,86,0.00,,---,0.00,VWS V13.01,2013-02-10 01:27:00,
2013-02-09 19:32:00,41.1,37.2,30.05,SE,135,5.0,13.0,86,0.00,,---,0.00,VWS V13.01,2013-02-10 01:32:00,
2013-02-09 19:37:00,41.1,37.2,30.04,ENE,74,4.0,11.0,86,0.00,,---,0.00,VWS V13.01,2013-02-10 01:37:00,
2013-02-09 19:42:00,41.1,37.2,30.04,East,91,6.0,11.0,86,0.00,,---,0.00,VWS V13.01,2013-02-10 01:42:00,
2013-02-09 19:47:00,41.1,37.2,30.04,East,82,4.0,11.0,86,0.00,,---,0.00,VWS V13.01,2013-02-10 01:47:00,
2013-02-09 19:52:00,41.1,37.2,30.05,ESE,109,6.0,11.0,86,0.00,,---,0.00,VWS V13.01,2013-02-10 01:52:00,
2013-02-09 19:57:00,41.1,37.2,30.05,ESE,122,3.0,13.0,86,0.00,,---,0.00,VWS V13.01,2013-02-10 01:57:00,
2013-02-09 20:02:00,41.1,37.2,30.05,East,95,0.0,13.0,86,0.00,,---,0.00,VWS V13.01,2013-02-10 02:02:00,
2013-02-09 20:08:00,41.1,37.2,30.05,SE,129,0.0,10.0,86,0.00,,---,0.00,VWS V13.01,2013-02-10 02:08:00,
2013-02-09 20:13:00,41.1,37.2,30.05,South,176,2.0,11.0,86,0.00,,---,0.00,VWS V13.01,2013-02-10 02:13:00,
2013-02-09 20:18:00,41.1,37.2,30.05,ESE,121,5.0,11.0,86,0.00,,---,0.00,VWS V13.01,2013-02-10 02:18:00,
2013-02-09 20:23:00,41.2,37.3,30.03,East,82,6.0,14.0,86,0.00,,---,0.00,VWS V13.01,2013-02-10 02:23:00,
2013-02-09 20:28:00,41.1,37.2,30.05,SW,217,2.0,14.0,86,0.00,,---,0.00,VWS V13.01,2013-02-10 02:28:00,
2013-02-09 20:33:00,41.1,37.5,30.05,SSE,157,1.0,14.0,87,0.01,,---,0.01,VWS V13.01,2013-02-10 02:33:00,
2013-02-09 20:38:00,41.1,37.5,30.04,SE,136,10.0,12.0,87,0.02,,---,0.02,VWS V13.01,2013-02-10 02:38:00,
2013-02-09 20:43:00,41.1,37.5,30.06,SE,139,0.0,12.0,87,0.02,,---,0.02,VWS V13.01,2013-02-10 02:43:00,
2013-02-09 20:48:00,41.0,37.7,30.05,ESE,105,1.0,12.0,88,0.03,,---,0.03,VWS V13.01,2013-02-10 02:48:00,
2013-02-09 20:53:00,41.0,37.7,30.04,ESE,113,5.0,12.0,88,0.03,,---,0.03,VWS V13.01,2013-02-10 02:53:00,
2013-02-09 20:58:00,40.9,37.6,30.03,SE,140,4.0,12.0,88,0.03,,---,0.03,VWS V13.01,2013-02-10 02:58:00,
2013-02-09 21:03:00,40.8,37.5,30.04,South,173,0.0,12.0,88,0.03,,---,0.03,VWS V13.01,2013-02-10 03:03:00,
2013-02-09 21:08:00,40.7,37.7,30.05,ESE,108,3.0,9.0,89,0.03,,---,0.03,VWS V13.01,2013-02-10 03:08:00,
2013-02-09 21:13:00,40.7,37.7,30.04,ESE,104,5.0,10.0,89,0.04,,---,0.04,VWS V13.01,2013-02-10 03:13:00,
2013-02-09 21:18:00,40.7,37.7,30.02,ESE,105,6.0,10.0,89,0.04,,---,0.04,VWS V13.01,2013-02-10 03:18:00,
2013-02-09 21:23:00,40.6,37.9,30.02,East,100,2.0,12.0,90,0.04,,---,0.04,VWS V13.01,2013-02-10 03:23:00,
2013-02-09 21:29:00,40.6,37.9,30.02,SSE,165,7.0,12.0,90,0.04,,---,0.04,VWS V13.01,2013-02-10 03:29:00,
2013-02-09 21:34:00,40.6,37.9,30.01,SE,141,5.0,12.0,90,0.04,,---,0.04,VWS V13.01,2013-02-10 03:34:00,
2013-02-09 21:39:00,40.5,37.8,30.02,ESE,108,3.0,11.0,90,0.02,,---,0.04,VWS V13.01,2013-02-10 03:39:00,
2013-02-09 21:44:00,40.5,37.8,30.04,SSW,195,0.0,11.0,90,0.02,,---,0.04,VWS V13.01,2013-02-10 03:44:00,
2013-02-09 21:49:00,40.5,37.8,30.04,ENE,76,1.0,11.0,90,0.02,,---,0.04,VWS V13.01,2013-02-10 03:49:00,
2013-02-09 21:54:00,40.6,37.9,30.03,ESE,107,1.0,11.0,90,0.02,,---,0.04,VWS V13.01,2013-02-10 03:54:00,
2013-02-09 21:59:00,40.6,37.9,30.02,East,99,5.0,11.0,90,0.02,,---,0.04,VWS V13.01,2013-02-10 03:59:00,
2013-02-09 22:04:00,40.6,37.9,30.02,SE,132,10.0,11.0,90,0.03,,---,0.05,VWS V13.01,2013-02-10 04:04:00,
2013-02-09 22:09:00,40.6,37.9,30.01,East,95,2.0,12.0,90,0.02,,---,0.05,VWS V13.01,2013-02-10 04:09:00,
2013-02-09 22:14:00,40.6,38.2,30.01,ESE,105,2.0,12.0,91,0.02,,---,0.05,VWS V13.01,2013-02-10 04:14:00,
2013-02-09 22:19:00,40.6,38.2,30.02,SE,141,0.0,12.0,91,0.02,,---,0.05,VWS V13.01,2013-02-10 04:19:00,
2013-02-09 22:25:00,40.5,38.1,30.02,ESE,123,5.0,12.0,91,0.02,,---,0.05,VWS V13.01,2013-02-10 04:25:00,
2013-02-09 22:30:00,40.5,38.1,30.02,SE,139,6.0,12.0,91,0.02,,---,0.05,VWS V13.01,2013-02-10 04:30:00,
2013-02-09 22:35:00,40.6,38.2,30.01,East,80,5.0,12.0,91,0.02,,---,0.05,VWS V13.01,2013-02-10 04:35:00,
2013-02-09 22:40:00,40.6,38.2,30.00,ESE,107,3.0,7.0,91,0.01,,---,0.05,VWS V13.01,2013-02-10 04:40:00,
2013-02-09 22:45:00,40.5,38.1,30.00,East,88,0.0,8.0,91,0.01,,---,0.05,VWS V13.01,2013-02-10 04:45:00,
2013-02-09 22:50:00,40.5,38.1,30.00,East,88,5.0,8.0,91,0.01,,---,0.05,VWS V13.01,2013-02-10 04:50:00,
2013-02-09 22:55:00,40.5,38.1,30.00,East,96,4.0,8.0,91,0.01,,---,0.05,VWS V13.01,2013-02-10 04:55:00,
2013-02-09 23:00:00,40.5,38.1,30.00,East,98,6.0,8.0,91,0.02,,---,0.06,VWS V13.01,2013-02-10 05:00:00,
2013-02-09 23:01:00,40.6,38.2,30.00,NE,55,3.0,8.0,91,0.02,,---,0.06,VWS V13.01,2013-02-10 05:01:00,
2013-02-09 23:03:00,40.5,38.1,30.00,East,89,3.0,10.0,91,0.02,,---,0.06,VWS V13.01,2013-02-10 05:03:00,
2013-02-09 23:08:00,40.5,38.1,29.99,East,99,4.0,8.0,91,0.01,,---,0.06,VWS V13.01,2013-02-10 05:08:00,
2013-02-09 23:13:00,40.5,38.4,29.99,East,93,4.0,11.0,92,0.01,,---,0.06,VWS V13.01,2013-02-10 05:13:00,
2013-02-09 23:18:00,40.5,38.4,29.99,ESE,103,5.0,11.0,92,0.01,,---,0.06,VWS V13.01,2013-02-10 05:18:00,
2013-02-09 23:23:00,40.6,38.5,29.99,South,178,2.0,12.0,92,0.01,,---,0.06,VWS V13.01,2013-02-10 05:23:00,
2013-02-09 23:28:00,40.6,38.5,29.98,East,95,5.0,13.0,92,0.02,,---,0.07,VWS V13.01,2013-02-10 05:28:00,
2013-02-09 23:33:00,40.6,38.5,29.98,SE,125,4.0,13.0,92,0.03,,---,0.08,VWS V13.01,2013-02-10 05:33:00,
2013-02-09 23:38:00,40.6,38.5,29.98,East,93,2.0,3.0,92,0.03,,---,0.08,VWS V13.01,2013-02-10 05:38:00,
2013-02-09 23:43:00,40.7,38.6,29.98,ESE,123,3.0,8.0,92,0.04,,---,0.09,VWS V13.01,2013-02-10 05:43:00,
2013-02-09 23:48:00,40.7,38.6,29.97,SE,130,3.0,10.0,92,0.04,,---,0.09,VWS V13.01,2013-02-10 05:48:00,
2013-02-09 23:53:00,40.7,38.6,29.98,ESE,111,3.0,10.0,92,0.04,,---,0.09,VWS V13.01,2013-02-10 05:53:00,
2013-02-09 23:58:00,40.7,38.6,29.98,SSE,163,2.0,10.0,92,0.04,,---,0.09,VWS V13.01,2013-02-10 05:58:00,